Time,TemperatureF,DewpointF,PressureIn,WindDirection,WindDirectionDegrees,WindSpeedMPH,WindSpeedGustMPH,Humidity,HourlyPrecipIn,Conditions,Clouds,dailyrainin,SoftwareType,DateUTC
2013-04-27 00:01:00,41.4,35.1,30.43,ESE,110,0.0,0.0,78,0.00,,,0.00,meteohub,2013-04-27 04:01:00,
2013-04-27 00:02:00,41.4,35.1,30.43,ESE,109,0.0,0.0,78,0.00,,,0.00,meteohub,2013-04-27 04:02:00,
2013-04-27 00:03:00,41.4,35.1,30.43,ESE,110,0.0,0.0,78,0.00,,,0.00,meteohub,2013-04-27 04:03:00,
2013-04-27 00:04:00,41.4,35.4,30.43,ESE,110,0.0,0.0,79,0.00,,,0.00,meteohub,2013-04-27 04:04:00,
2013-04-27 00:07:00,41.2,35.2,30.43,ESE,109,0.0,0.0,79,0.00,,,0.00,meteohub,2013-04-27 04:07:00,
2013-04-27 00:12:00,41.0,35.1,30.43,ESE,109,0.0,0.0,79,0.00,,,0.00,meteohub,2013-04-27 04:12:00,
2013-04-27 00:17:00,40.6,34.7,30.43,ESE,110,0.0,1.0,79,0.00,,,0.00,meteohub,2013-04-27 04:17:00,
2013-04-27 00:22:00,40.5,34.7,30.43,ESE,110,0.0,1.0,80,0.00,,,0.00,meteohub,2013-04-27 04:22:00,
2013-04-27 00:27:00,40.3,34.5,30.43,ESE,110,0.0,1.0,80,0.00,,,0.00,meteohub,2013-04-27 04:27:00,
2013-04-27 00:33:00,40.1,35.1,30.43,ESE,109,0.0,0.0,82,0.00,,,0.00,meteohub,2013-04-27 04:33:00,
2013-04-27 00:38:00,39.7,34.3,30.43,ESE,109,0.0,0.0,81,0.00,,,0.00,meteohub,2013-04-27 04:38:00,
2013-04-27 00:43:00,39.7,34.3,30.43,ESE,110,0.0,0.0,81,0.00,,,0.00,meteohub,2013-04-27 04:43:00,
2013-04-27 00:48:00,39.6,34.5,30.43,ESE,109,0.0,0.0,82,0.00,,,0.00,meteohub,2013-04-27 04:48:00,
2013-04-27 00:53:00,39.4,34.7,30.43,ESE,110,0.0,0.0,83,0.00,,,0.00,meteohub,2013-04-27 04:53:00,
2013-04-27 00:58:00,39.2,34.5,30.43,ESE,110,0.0,0.0,83,0.00,,,0.00,meteohub,2013-04-27 04:58:00,
2013-04-27 01:03:00,39.0,34.3,30.43,ESE,109,0.0,0.0,83,0.00,,,0.00,meteohub,2013-04-27 05:03:00,
2013-04-27 01:08:00,38.8,34.2,30.43,ESE,110,0.0,0.0,83,0.00,,,0.00,meteohub,2013-04-27 05:08:00,
2013-04-27 01:13:00,38.7,34.2,30.43,ESE,109,0.0,0.0,84,0.00,,,0.00,meteohub,2013-04-27 05:13:00,
2013-04-27 01:18:00,38.5,34.3,30.43,ESE,110,0.0,0.0,85,0.00,,,0.00,meteohub,2013-04-27 05:18:00,
2013-04-27 01:23:00,38.1,34.0,30.44,ESE,109,0.0,1.0,85,0.00,,,0.00,meteohub,2013-04-27 05:23:00,
2013-04-27 01:28:00,37.9,33.6,30.43,ESE,110,0.0,1.0,84,0.00,,,0.00,meteohub,2013-04-27 05:28:00,
2013-04-27 01:33:00,37.8,34.0,30.43,ESE,110,2.0,2.0,86,0.00,,,0.00,meteohub,2013-04-27 05:33:00,
2013-04-27 01:38:00,37.6,33.8,30.43,ESE,109,0.0,3.0,86,0.00,,,0.00,meteohub,2013-04-27 05:38:00,
2013-04-27 01:43:00,37.2,33.8,30.43,ESE,109,1.0,3.0,87,0.00,,,0.00,meteohub,2013-04-27 05:43:00,
2013-04-27 01:48:00,37.2,33.8,30.43,ESE,109,0.0,3.0,87,0.00,,,0.00,meteohub,2013-04-27 05:48:00,
2013-04-27 01:53:00,37.0,33.8,30.43,ESE,109,0.0,2.0,88,0.00,,,0.00,meteohub,2013-04-27 05:53:00,
2013-04-27 01:58:00,37.0,33.8,30.43,ESE,109,0.0,2.0,88,0.00,,,0.00,meteohub,2013-04-27 05:58:00,
2013-04-27 02:03:00,37.0,33.8,30.43,ESE,109,0.0,2.0,88,0.00,,,0.00,meteohub,2013-04-27 06:03:00,
2013-04-27 02:08:00,37.0,33.8,30.43,ESE,109,2.0,2.0,88,0.00,,,0.00,meteohub,2013-04-27 06:08:00,
2013-04-27 02:13:00,37.2,34.3,30.43,ESE,110,0.0,1.0,89,0.00,,,0.00,meteohub,2013-04-27 06:13:00,
2013-04-27 02:18:00,37.2,34.0,30.43,ESE,109,0.0,2.0,88,0.00,,,0.00,meteohub,2013-04-27 06:18:00,
2013-04-27 02:23:00,37.2,34.0,30.43,ESE,109,1.0,2.0,88,0.00,,,0.00,meteohub,2013-04-27 06:23:00,
2013-04-27 02:28:00,37.2,34.3,30.43,ESE,109,0.0,2.0,89,0.00,,,0.00,meteohub,2013-04-27 06:28:00,
2013-04-27 02:33:00,37.2,34.0,30.43,ESE,109,0.0,2.0,88,0.00,,,0.00,meteohub,2013-04-27 06:33:00,
2013-04-27 02:39:00,37.0,33.6,30.43,ESE,109,0.0,2.0,87,0.00,,,0.00,meteohub,2013-04-27 06:39:00,
2013-04-27 02:44:00,36.9,33.4,30.43,ESE,109,0.0,2.0,87,0.00,,,0.00,meteohub,2013-04-27 06:44:00,
2013-04-27 02:49:00,36.9,33.6,30.43,ESE,109,0.0,0.0,88,0.00,,,0.00,meteohub,2013-04-27 06:49:00,
2013-04-27 02:54:00,36.9,33.4,30.43,ESE,109,0.0,0.0,87,0.00,,,0.00,meteohub,2013-04-27 06:54:00,
2013-04-27 02:59:00,36.9,33.6,30.42,ESE,109,1.0,0.0,88,0.00,,,0.00,meteohub,2013-04-27 06:59:00,
2013-04-27 03:04:00,36.7,33.4,30.42,ESE,109,0.0,1.0,88,0.00,,,0.00,meteohub,2013-04-27 07:04:00,
2013-04-27 03:09:00,36.5,33.6,30.42,ESE,109,0.0,1.0,89,0.00,,,0.00,meteohub,2013-04-27 07:09:00,
2013-04-27 03:14:00,36.3,33.4,30.42,ESE,109,0.0,1.0,89,0.00,,,0.00,meteohub,2013-04-27 07:14:00,
2013-04-27 03:19:00,36.3,33.1,30.42,ESE,109,0.0,1.0,88,0.00,,,0.00,meteohub,2013-04-27 07:19:00,
2013-04-27 03:24:00,36.1,33.3,30.42,ESE,109,1.0,1.0,89,0.00,,,0.00,meteohub,2013-04-27 07:24:00,
2013-04-27 03:29:00,36.0,33.1,30.42,ESE,109,0.0,2.0,89,0.00,,,0.00,meteohub,2013-04-27 07:29:00,
2013-04-27 03:34:00,36.0,33.1,30.42,ESE,109,0.0,2.0,89,0.00,,,0.00,meteohub,2013-04-27 07:34:00,
2013-04-27 03:39:00,35.6,32.4,30.42,ESE,109,0.0,2.0,88,0.00,,,0.00,meteohub,2013-04-27 07:39:00,
2013-04-27 03:44:00,35.4,32.2,30.42,ESE,109,0.0,1.0,88,0.00,,,0.00,meteohub,2013-04-27 07:44:00,
2013-04-27 03:49:00,35.2,32.4,30.42,ESE,110,0.0,0.0,89,0.00,,,0.00,meteohub,2013-04-27 07:49:00,
2013-04-27 03:54:00,35.2,32.4,30.42,ESE,109,0.0,0.0,89,0.00,,,0.00,meteohub,2013-04-27 07:54:00,
2013-04-27 03:59:00,35.1,32.2,30.42,ESE,109,0.0,0.0,89,0.00,,,0.00,meteohub,2013-04-27 07:59:00,
2013-04-27 04:04:00,35.1,32.2,30.42,ESE,109,0.0,0.0,89,0.00,,,0.00,meteohub,2013-04-27 08:04:00,
2013-04-27 04:09:00,34.9,32.0,30.42,ESE,109,0.0,0.0,89,0.00,,,0.00,meteohub,2013-04-27 08:09:00,
2013-04-27 04:14:00,34.5,31.6,30.42,ESE,109,0.0,0.0,89,0.00,,,0.00,meteohub,2013-04-27 08:14:00,
2013-04-27 04:19:00,34.5,31.8,30.41,ESE,109,0.0,0.0,90,0.00,,,0.00,meteohub,2013-04-27 08:19:00,
2013-04-27 04:24:00,34.3,31.6,30.41,ESE,109,0.0,0.0,90,0.00,,,0.00,meteohub,2013-04-27 08:24:00,
2013-04-27 04:29:00,34.3,32.0,30.41,ESE,109,0.0,0.0,91,0.00,,,0.00,meteohub,2013-04-27 08:29:00,
2013-04-27 04:34:00,34.2,31.8,30.41,ESE,109,0.0,1.0,91,0.00,,,0.00,meteohub,2013-04-27 08:34:00,
2013-04-27 04:39:00,34.2,31.8,30.41,ESE,109,0.0,1.0,91,0.00,,,0.00,meteohub,2013-04-27 08:39:00,
2013-04-27 04:44:00,34.0,31.6,30.42,ESE,109,1.0,1.0,91,0.00,,,0.00,meteohub,2013-04-27 08:44:00,
2013-04-27 04:50:00,34.0,31.8,30.42,ESE,109,0.0,0.0,92,0.00,,,0.00,meteohub,2013-04-27 08:50:00,
2013-04-27 04:55:00,33.8,31.5,30.41,ESE,109,0.0,1.0,91,0.00,,,0.00,meteohub,2013-04-27 08:55:00,
2013-04-27 05:00:00,33.6,31.5,30.42,ESE,109,1.0,1.0,92,0.00,,,0.00,meteohub,2013-04-27 09:00:00,
2013-04-27 05:05:00,33.6,31.5,30.42,ESE,109,1.0,1.0,92,0.00,,,0.00,meteohub,2013-04-27 09:05:00,
2013-04-27 05:10:00,33.6,31.5,30.42,ESE,109,0.0,2.0,92,0.00,,,0.00,meteohub,2013-04-27 09:10:00,
2013-04-27 05:15:00,33.4,31.3,30.42,ESE,109,0.0,2.0,92,0.00,,,0.00,meteohub,2013-04-27 09:15:00,
2013-04-27 05:20:00,33.4,31.3,30.42,ESE,109,0.0,2.0,92,0.00,,,0.00,meteohub,2013-04-27 09:20:00,
2013-04-27 05:25:00,33.4,31.3,30.42,ESE,109,0.0,2.0,92,0.00,,,0.00,meteohub,2013-04-27 09:25:00,
2013-04-27 05:30:00,33.3,31.1,30.42,ESE,109,1.0,2.0,92,0.00,,,0.00,meteohub,2013-04-27 09:30:00,
2013-04-27 05:35:00,33.3,31.5,30.42,ESE,109,0.0,1.0,93,0.00,,,0.00,meteohub,2013-04-27 09:35:00,
2013-04-27 05:40:00,33.3,31.5,30.42,ESE,109,0.0,1.0,93,0.00,,,0.00,meteohub,2013-04-27 09:40:00,
2013-04-27 05:45:00,33.3,31.5,30.42,ESE,109,0.0,1.0,93,0.00,,,0.00,meteohub,2013-04-27 09:45:00,
2013-04-27 05:50:00,33.1,31.1,30.42,ESE,109,0.0,1.0,92,0.00,,,0.00,meteohub,2013-04-27 09:50:00,
2013-04-27 05:55:00,32.9,31.1,30.42,ESE,109,0.0,2.0,93,0.00,,,0.00,meteohub,2013-04-27 09:55:00,
2013-04-27 06:00:00,32.9,31.1,30.42,ESE,109,0.0,2.0,93,0.00,,,0.00,meteohub,2013-04-27 10:00:00,
2013-04-27 06:05:00,32.7,30.9,30.43,ESE,109,0.0,2.0,93,0.00,,,0.00,meteohub,2013-04-27 10:05:00,
2013-04-27 06:10:00,32.7,30.7,30.43,ESE,109,0.0,1.0,92,0.00,,,0.00,meteohub,2013-04-27 10:10:00,
2013-04-27 06:15:00,32.5,30.6,30.43,ESE,109,0.0,0.0,92,0.00,,,0.00,meteohub,2013-04-27 10:15:00,
2013-04-27 06:20:00,32.4,30.6,30.43,ESE,109,0.0,0.0,93,0.00,,,0.00,meteohub,2013-04-27 10:20:00,
2013-04-27 06:25:00,32.4,30.6,30.43,ESE,109,0.0,0.0,93,0.00,,,0.00,meteohub,2013-04-27 10:25:00,
2013-04-27 06:30:00,32.4,30.6,30.43,ESE,109,0.0,0.0,93,0.00,,,0.00,meteohub,2013-04-27 10:30:00,
2013-04-27 06:35:00,32.4,30.6,30.43,ESE,109,0.0,0.0,93,0.00,,,0.00,meteohub,2013-04-27 10:35:00,
2013-04-27 06:40:00,32.4,30.6,30.43,ESE,110,0.0,0.0,93,0.00,,,0.00,meteohub,2013-04-27 10:40:00,
2013-04-27 06:45:00,32.5,30.7,30.43,ESE,109,0.0,0.0,93,0.00,,,0.00,meteohub,2013-04-27 10:45:00,
2013-04-27 06:50:00,32.7,31.1,30.43,ESE,109,0.0,1.0,94,0.00,,,0.00,meteohub,2013-04-27 10:50:00,
2013-04-27 06:55:00,32.9,31.3,30.43,ESE,110,1.0,2.0,94,0.00,,,0.00,meteohub,2013-04-27 10:55:00,
2013-04-27 07:01:00,33.1,31.5,30.43,ESE,109,1.0,2.0,94,0.00,,,0.00,meteohub,2013-04-27 11:01:00,
2013-04-27 07:06:00,33.3,31.6,30.43,ESE,109,1.0,2.0,94,0.00,,,0.00,meteohub,2013-04-27 11:06:00,
2013-04-27 07:11:00,33.4,31.8,30.43,ESE,109,0.0,2.0,94,0.00,,,0.00,meteohub,2013-04-27 11:11:00,
2013-04-27 07:16:00,33.6,32.0,30.43,ESE,109,0.0,2.0,94,0.00,,,0.00,meteohub,2013-04-27 11:16:00,
2013-04-27 07:21:00,34.0,32.4,30.43,ESE,109,0.0,2.0,94,0.00,,,0.00,meteohub,2013-04-27 11:21:00,
2013-04-27 07:26:00,34.3,32.7,30.43,ESE,109,0.0,1.0,94,0.00,,,0.00,meteohub,2013-04-27 11:26:00,
2013-04-27 07:31:00,34.5,32.9,30.43,ESE,109,0.0,1.0,94,0.00,,,0.00,meteohub,2013-04-27 11:31:00,
2013-04-27 07:36:00,35.1,33.3,30.43,ESE,109,0.0,0.0,93,0.00,,,0.00,meteohub,2013-04-27 11:36:00,
2013-04-27 07:41:00,35.4,33.6,30.43,ESE,109,0.0,1.0,93,0.00,,,0.00,meteohub,2013-04-27 11:41:00,
2013-04-27 07:46:00,36.0,33.8,30.43,ESE,109,0.0,1.0,92,0.00,,,0.00,meteohub,2013-04-27 11:46:00,
2013-04-27 07:51:00,36.3,34.0,30.43,ESE,109,0.0,1.0,91,0.00,,,0.00,meteohub,2013-04-27 11:51:00,
2013-04-27 07:56:00,36.7,34.0,30.42,ESE,109,0.0,1.0,90,0.00,,,0.00,meteohub,2013-04-27 11:56:00,
2013-04-27 08:01:00,37.0,34.2,30.43,ESE,110,0.0,1.0,89,0.00,,,0.00,meteohub,2013-04-27 12:01:00,
2013-04-27 08:06:00,37.4,34.2,30.42,ESE,109,0.0,0.0,88,0.00,,,0.00,meteohub,2013-04-27 12:06:00,
2013-04-27 08:11:00,37.9,34.3,30.42,ESE,109,0.0,0.0,87,0.00,,,0.00,meteohub,2013-04-27 12:11:00,
2013-04-27 08:16:00,38.3,34.7,30.42,ESE,109,0.0,0.0,87,0.00,,,0.00,meteohub,2013-04-27 12:16:00,
2013-04-27 08:21:00,38.7,35.4,30.42,ESE,110,0.0,1.0,88,0.00,,,0.00,meteohub,2013-04-27 12:21:00,
2013-04-27 08:26:00,39.0,35.4,30.42,ESE,109,0.0,1.0,87,0.00,,,0.00,meteohub,2013-04-27 12:26:00,
2013-04-27 08:31:00,39.6,35.8,30.42,ESE,109,0.0,1.0,86,0.00,,,0.00,meteohub,2013-04-27 12:31:00,
2013-04-27 08:36:00,39.9,36.1,30.42,ESE,109,0.0,1.0,86,0.00,,,0.00,meteohub,2013-04-27 12:36:00,
2013-04-27 08:41:00,40.3,35.8,30.42,ESE,109,0.0,1.0,84,0.00,,,0.00,meteohub,2013-04-27 12:41:00,
2013-04-27 08:46:00,40.6,36.0,30.42,ESE,109,0.0,1.0,83,0.00,,,0.00,meteohub,2013-04-27 12:46:00,
2013-04-27 08:51:00,41.0,35.6,30.42,ESE,109,0.0,1.0,81,0.00,,,0.00,meteohub,2013-04-27 12:51:00,
2013-04-27 08:56:00,41.7,36.9,30.42,ESE,109,0.0,1.0,83,0.00,,,0.00,meteohub,2013-04-27 12:56:00,
2013-04-27 09:01:00,42.4,37.0,30.41,ESE,109,0.0,1.0,81,0.00,,,0.00,meteohub,2013-04-27 13:01:00,
2013-04-27 09:06:00,42.8,36.7,30.41,ESE,109,0.0,1.0,79,0.00,,,0.00,meteohub,2013-04-27 13:06:00,
2013-04-27 09:11:00,43.3,37.6,30.41,ESE,109,0.0,1.0,80,0.00,,,0.00,meteohub,2013-04-27 13:11:00,
2013-04-27 09:17:00,43.7,36.7,30.41,ESE,109,0.0,1.0,76,0.00,,,0.00,meteohub,2013-04-27 13:17:00,
2013-04-27 09:22:00,44.4,37.4,30.41,ESE,109,1.0,1.0,76,0.00,,,0.00,meteohub,2013-04-27 13:22:00,
2013-04-27 09:27:00,45.3,37.6,30.41,ESE,109,1.0,2.0,74,0.00,,,0.00,meteohub,2013-04-27 13:27:00,
2013-04-27 09:32:00,46.0,36.9,30.41,ESE,109,0.0,2.0,70,0.00,,,0.00,meteohub,2013-04-27 13:32:00,
2013-04-27 09:37:00,47.1,37.0,30.41,SE,130,1.0,3.0,68,0.00,,,0.00,meteohub,2013-04-27 13:37:00,
2013-04-27 09:42:00,48.4,36.3,30.41,NW,309,0.0,3.0,63,0.00,,,0.00,meteohub,2013-04-27 13:42:00,
2013-04-27 09:48:00,49.3,36.3,30.41,SSE,147,0.0,3.0,61,0.00,,,0.00,meteohub,2013-04-27 13:48:00,
2013-04-27 09:54:00,50.5,36.3,30.41,ESE,111,1.0,3.0,58,0.00,,,0.00,meteohub,2013-04-27 13:54:00,
2013-04-27 09:59:00,51.6,35.1,30.41,SE,141,0.0,5.0,53,0.00,,,0.00,meteohub,2013-04-27 13:59:00,
2013-04-27 10:04:00,51.4,34.9,30.41,North,358,0.0,5.0,53,0.00,,,0.00,meteohub,2013-04-27 14:04:00,
2013-04-27 10:09:00,51.3,33.8,30.40,NNW,339,0.0,5.0,51,0.00,,,0.00,meteohub,2013-04-27 14:09:00,
2013-04-27 10:14:00,51.3,35.6,30.40,NNW,339,1.0,5.0,55,0.00,,,0.00,meteohub,2013-04-27 14:14:00,
2013-04-27 10:19:00,51.6,35.6,30.40,ESE,117,2.0,3.0,54,0.00,,,0.00,meteohub,2013-04-27 14:19:00,
2013-04-27 10:24:00,52.5,34.9,30.40,North,352,2.0,3.0,51,0.00,,,0.00,meteohub,2013-04-27 14:24:00,
2013-04-27 10:29:00,52.7,34.5,30.40,East,88,1.0,2.0,50,0.00,,,0.00,meteohub,2013-04-27 14:29:00,
2013-04-27 10:34:00,53.2,32.4,30.40,ESE,123,0.0,3.0,45,0.00,,,0.00,meteohub,2013-04-27 14:34:00,
2013-04-27 10:39:00,53.8,32.4,30.40,NNW,329,2.0,5.0,44,0.00,,,0.00,meteohub,2013-04-27 14:39:00,
2013-04-27 10:44:00,53.4,32.0,30.40,North,10,3.0,5.0,44,0.00,,,0.00,meteohub,2013-04-27 14:44:00,
2013-04-27 10:49:00,53.4,33.1,30.40,SE,139,0.0,8.0,46,0.00,,,0.00,meteohub,2013-04-27 14:49:00,
2013-04-27 10:54:00,54.1,32.2,30.40,ENE,74,0.0,8.0,43,0.00,,,0.00,meteohub,2013-04-27 14:54:00,
2013-04-27 10:59:00,55.0,31.8,30.40,NW,326,4.0,8.0,41,0.00,,,0.00,meteohub,2013-04-27 14:59:00,
2013-04-27 11:04:00,55.0,31.1,30.40,NW,320,1.0,7.0,40,0.00,,,0.00,meteohub,2013-04-27 15:04:00,
2013-04-27 11:09:00,54.9,31.6,30.39,NNW,336,0.0,7.0,41,0.00,,,0.00,meteohub,2013-04-27 15:09:00,
2013-04-27 11:14:00,54.7,30.9,30.39,NW,311,4.0,7.0,40,0.00,,,0.00,meteohub,2013-04-27 15:14:00,
2013-04-27 11:19:00,54.5,31.8,30.39,North,349,6.0,7.0,42,0.00,,,0.00,meteohub,2013-04-27 15:19:00,
2013-04-27 11:24:00,54.5,31.3,30.39,NE,55,0.0,6.0,41,0.00,,,0.00,meteohub,2013-04-27 15:24:00,
2013-04-27 11:29:00,54.9,29.1,30.39,NW,309,4.0,7.0,37,0.00,,,0.00,meteohub,2013-04-27 15:29:00,
2013-04-27 11:34:00,54.9,30.4,30.39,NW,313,7.0,7.0,39,0.00,,,0.00,meteohub,2013-04-27 15:34:00,
2013-04-27 11:39:00,54.9,29.1,30.39,NW,323,0.0,10.0,37,0.00,,,0.00,meteohub,2013-04-27 15:39:00,
2013-04-27 11:44:00,55.2,29.5,30.39,North,354,0.0,10.0,37,0.00,,,0.00,meteohub,2013-04-27 15:44:00,
2013-04-27 11:50:00,55.9,30.0,30.38,East,97,2.0,10.0,37,0.00,,,0.00,meteohub,2013-04-27 15:50:00,
2013-04-27 11:55:00,56.7,28.6,30.38,NNW,341,0.0,7.0,34,0.00,,,0.00,meteohub,2013-04-27 15:55:00,
2013-04-27 12:00:00,56.3,28.9,30.38,NNW,339,5.0,6.0,35,0.00,,,0.00,meteohub,2013-04-27 16:00:00,
2013-04-27 12:05:00,55.9,26.4,30.38,NNW,330,0.0,6.0,32,0.00,,,0.00,meteohub,2013-04-27 16:05:00,
2013-04-27 12:10:00,56.1,26.6,30.38,West,267,2.0,8.0,32,0.00,,,0.00,meteohub,2013-04-27 16:10:00,
2013-04-27 12:15:00,56.8,28.8,30.38,NNW,328,2.0,8.0,34,0.00,,,0.00,meteohub,2013-04-27 16:15:00,
2013-04-27 12:20:00,57.0,25.9,30.38,WNW,299,6.0,8.0,30,0.00,,,0.00,meteohub,2013-04-27 16:20:00,
2013-04-27 12:25:00,56.7,23.9,30.38,WNW,295,2.0,6.0,28,0.00,,,0.00,meteohub,2013-04-27 16:25:00,
2013-04-27 12:30:00,57.0,25.9,30.37,ESE,112,0.0,8.0,30,0.00,,,0.00,meteohub,2013-04-27 16:30:00,
2013-04-27 12:35:00,58.5,27.1,30.37,ESE,104,2.0,8.0,30,0.00,,,0.00,meteohub,2013-04-27 16:35:00,
2013-04-27 12:40:00,58.3,27.0,30.37,NNW,332,1.0,8.0,30,0.00,,,0.00,meteohub,2013-04-27 16:40:00,
2013-04-27 12:45:00,57.6,27.9,30.36,NW,318,0.0,9.0,32,0.00,,,0.00,meteohub,2013-04-27 16:45:00,
2013-04-27 12:50:00,58.3,31.5,30.35,West,273,2.0,9.0,36,0.00,,,0.00,meteohub,2013-04-27 16:50:00,
2013-04-27 12:55:00,57.9,29.7,30.35,NNW,337,2.0,9.0,34,0.00,,,0.00,meteohub,2013-04-27 16:55:00,
2013-04-27 13:00:00,57.7,23.9,30.35,North,359,5.0,7.0,27,0.00,,,0.00,meteohub,2013-04-27 17:00:00,
2013-04-27 13:05:00,57.6,26.4,30.35,NNW,331,3.0,9.0,30,0.00,,,0.00,meteohub,2013-04-27 17:05:00,
2013-04-27 13:10:00,57.7,23.0,30.35,NNW,345,4.0,9.0,26,0.00,,,0.00,meteohub,2013-04-27 17:10:00,
2013-04-27 13:15:00,58.5,20.8,30.35,North,355,1.0,9.0,23,0.00,,,0.00,meteohub,2013-04-27 17:15:00,
2013-04-27 13:20:00,58.8,21.0,30.35,WNW,291,1.0,9.0,23,0.00,,,0.00,meteohub,2013-04-27 17:20:00,
2013-04-27 13:25:00,59.0,22.3,30.35,West,260,1.0,5.0,24,0.00,,,0.00,meteohub,2013-04-27 17:25:00,
2013-04-27 13:30:00,59.5,21.7,30.34,East,96,1.0,6.0,23,0.00,,,0.00,meteohub,2013-04-27 17:30:00,
2013-04-27 13:35:00,60.1,26.1,30.34,NNW,340,5.0,6.0,27,0.00,,,0.00,meteohub,2013-04-27 17:35:00,
2013-04-27 13:40:00,59.2,21.4,30.34,NNW,348,3.0,15.0,23,0.00,,,0.00,meteohub,2013-04-27 17:40:00,
2013-04-27 13:45:00,59.4,21.6,30.34,NW,316,0.0,15.0,23,0.00,,,0.00,meteohub,2013-04-27 17:45:00,
2013-04-27 13:50:00,59.7,19.8,30.34,NNW,330,1.0,8.0,21,0.00,,,0.00,meteohub,2013-04-27 17:50:00,
2013-04-27 13:55:00,60.3,21.2,30.33,NNW,336,3.0,8.0,22,0.00,,,0.00,meteohub,2013-04-27 17:55:00,
2013-04-27 14:01:00,60.3,19.0,30.33,North,351,6.0,11.0,20,0.00,,,0.00,meteohub,2013-04-27 18:01:00,
2013-04-27 14:06:00,60.1,19.9,30.33,NW,321,0.0,11.0,21,0.00,,,0.00,meteohub,2013-04-27 18:06:00,
2013-04-27 14:11:00,60.4,22.5,30.33,NNW,338,3.0,11.0,23,0.00,,,0.00,meteohub,2013-04-27 18:11:00,
2013-04-27 14:16:00,60.6,22.6,30.33,NNW,334,4.0,8.0,23,0.00,,,0.00,meteohub,2013-04-27 18:16:00,
2013-04-27 14:21:00,60.3,20.1,30.32,NW,318,7.0,7.0,21,0.00,,,0.00,meteohub,2013-04-27 18:21:00,
2013-04-27 14:26:00,60.1,18.9,30.32,SSW,198,1.0,9.0,20,0.00,,,0.00,meteohub,2013-04-27 18:26:00,
2013-04-27 14:31:00,60.4,21.4,30.32,NW,320,1.0,9.0,22,0.00,,,0.00,meteohub,2013-04-27 18:31:00,
2013-04-27 14:36:00,61.0,19.6,30.32,WNW,303,4.0,9.0,20,0.00,,,0.00,meteohub,2013-04-27 18:36:00,
2013-04-27 14:41:00,61.5,22.3,30.32,North,351,4.0,9.0,22,0.00,,,0.00,meteohub,2013-04-27 18:41:00,
2013-04-27 14:46:00,61.5,23.4,30.32,NNW,347,1.0,13.0,23,0.00,,,0.00,meteohub,2013-04-27 18:46:00,
2013-04-27 14:51:00,61.5,23.4,30.32,NW,315,9.0,13.0,23,0.00,,,0.00,meteohub,2013-04-27 18:51:00,
2013-04-27 14:56:00,60.6,26.4,30.32,NNW,337,8.0,13.0,27,0.00,,,0.00,meteohub,2013-04-27 18:56:00,
2013-04-27 15:01:00,60.4,26.2,30.31,NNW,338,6.0,9.0,27,0.00,,,0.00,meteohub,2013-04-27 19:01:00,
2013-04-27 15:06:00,60.3,25.2,30.31,NNW,343,2.0,13.0,26,0.00,,,0.00,meteohub,2013-04-27 19:06:00,
2013-04-27 15:11:00,60.4,23.5,30.31,WNW,301,4.0,13.0,24,0.00,,,0.00,meteohub,2013-04-27 19:11:00,
2013-04-27 15:16:00,60.6,23.5,30.31,NW,326,3.0,11.0,24,0.00,,,0.00,meteohub,2013-04-27 19:16:00,
2013-04-27 15:21:00,60.4,26.2,30.31,North,350,2.0,10.0,27,0.00,,,0.00,meteohub,2013-04-27 19:21:00,
2013-04-27 15:26:00,60.4,26.2,30.30,NW,320,3.0,10.0,27,0.00,,,0.00,meteohub,2013-04-27 19:26:00,
2013-04-27 15:31:00,60.3,26.1,30.30,NNW,331,7.0,9.0,27,0.00,,,0.00,meteohub,2013-04-27 19:31:00,
2013-04-27 15:36:00,60.1,28.6,30.30,NNW,336,3.0,9.0,30,0.00,,,0.00,meteohub,2013-04-27 19:36:00,
2013-04-27 15:41:00,60.1,26.1,30.30,WSW,252,2.0,9.0,27,0.00,,,0.00,meteohub,2013-04-27 19:41:00,
2013-04-27 15:47:00,60.3,27.0,30.30,NW,323,5.0,8.0,28,0.00,,,0.00,meteohub,2013-04-27 19:47:00,
2013-04-27 15:52:00,60.1,26.8,30.30,NNW,344,3.0,8.0,28,0.00,,,0.00,meteohub,2013-04-27 19:52:00,
2013-04-27 15:57:00,59.7,25.7,30.30,NNW,333,1.0,10.0,27,0.00,,,0.00,meteohub,2013-04-27 19:57:00,
2013-04-27 16:02:00,59.9,25.9,30.30,NNW,338,6.0,10.0,27,0.00,,,0.00,meteohub,2013-04-27 20:02:00,
2013-04-27 16:07:00,59.7,28.2,30.29,NW,315,4.0,10.0,30,0.00,,,0.00,meteohub,2013-04-27 20:07:00,
2013-04-27 16:12:00,59.4,28.8,30.29,NNW,328,14.0,14.0,31,0.00,,,0.00,meteohub,2013-04-27 20:12:00,
2013-04-27 16:17:00,59.4,27.9,30.29,NNW,328,8.0,15.0,30,0.00,,,0.00,meteohub,2013-04-27 20:17:00,
2013-04-27 16:22:00,59.4,30.2,30.29,NNW,341,5.0,15.0,33,0.00,,,0.00,meteohub,2013-04-27 20:22:00,
2013-04-27 16:27:00,59.4,27.9,30.29,NNW,341,5.0,15.0,30,0.00,,,0.00,meteohub,2013-04-27 20:27:00,
2013-04-27 16:32:00,59.2,29.3,30.29,North,0,5.0,12.0,32,0.00,,,0.00,meteohub,2013-04-27 20:32:00,
2013-04-27 16:37:00,59.4,28.8,30.28,NNW,332,4.0,13.0,31,0.00,,,0.00,meteohub,2013-04-27 20:37:00,
2013-04-27 16:42:00,59.5,28.0,30.29,NNW,344,2.0,13.0,30,0.00,,,0.00,meteohub,2013-04-27 20:42:00,
2013-04-27 16:47:00,59.4,27.1,30.29,WNW,303,3.0,10.0,29,0.00,,,0.00,meteohub,2013-04-27 20:47:00,
2013-04-27 16:52:00,59.4,28.8,30.29,WNW,303,4.0,10.0,31,0.00,,,0.00,meteohub,2013-04-27 20:52:00,
2013-04-27 16:57:00,59.5,28.9,30.29,NW,313,2.0,9.0,31,0.00,,,0.00,meteohub,2013-04-27 20:57:00,
2013-04-27 17:02:00,59.4,31.6,30.29,North,354,5.0,8.0,35,0.00,,,0.00,meteohub,2013-04-27 21:02:00,
2013-04-27 17:07:00,59.2,30.7,30.29,NNW,330,7.0,9.0,34,0.00,,,0.00,meteohub,2013-04-27 21:07:00,
2013-04-27 17:12:00,58.6,28.9,30.29,NNW,336,4.0,10.0,32,0.00,,,0.00,meteohub,2013-04-27 21:12:00,
2013-04-27 17:17:00,58.5,28.8,30.29,NW,312,3.0,10.0,32,0.00,,,0.00,meteohub,2013-04-27 21:17:00,
2013-04-27 17:22:00,58.5,30.2,30.29,NNW,331,4.0,10.0,34,0.00,,,0.00,meteohub,2013-04-27 21:22:00,
2013-04-27 17:27:00,58.3,30.0,30.29,North,359,7.0,9.0,34,0.00,,,0.00,meteohub,2013-04-27 21:27:00,
2013-04-27 17:32:00,58.3,30.7,30.30,NNW,334,5.0,9.0,35,0.00,,,0.00,meteohub,2013-04-27 21:32:00,
2013-04-27 17:37:00,58.1,29.1,30.30,NW,326,4.0,9.0,33,0.00,,,0.00,meteohub,2013-04-27 21:37:00,
2013-04-27 17:42:00,57.9,29.7,30.29,NNW,337,4.0,8.0,34,0.00,,,0.00,meteohub,2013-04-27 21:42:00,
2013-04-27 17:47:00,57.9,29.7,30.29,NNW,330,0.0,8.0,34,0.00,,,0.00,meteohub,2013-04-27 21:47:00,
2013-04-27 17:52:00,58.3,30.0,30.29,NNW,328,6.0,7.0,34,0.00,,,0.00,meteohub,2013-04-27 21:52:00,
2013-04-27 17:57:00,58.6,26.4,30.29,WNW,299,4.0,6.0,29,0.00,,,0.00,meteohub,2013-04-27 21:57:00,
2013-04-27 18:02:00,59.2,27.7,30.29,North,7,2.0,11.0,30,0.00,,,0.00,meteohub,2013-04-27 22:02:00,
2013-04-27 18:07:00,59.4,27.1,30.29,North,351,8.0,11.0,29,0.00,,,0.00,meteohub,2013-04-27 22:07:00,
2013-04-27 18:12:00,59.2,27.7,30.29,North,356,3.0,11.0,30,0.00,,,0.00,meteohub,2013-04-27 22:12:00,
2013-04-27 18:17:00,59.4,29.5,30.29,NW,312,3.0,9.0,32,0.00,,,0.00,meteohub,2013-04-27 22:17:00,
2013-04-27 18:22:00,59.2,28.6,30.29,NW,324,4.0,10.0,31,0.00,,,0.00,meteohub,2013-04-27 22:22:00,
2013-04-27 18:27:00,58.5,28.8,30.29,NNW,342,3.0,10.0,32,0.00,,,0.00,meteohub,2013-04-27 22:27:00,
2013-04-27 18:32:00,58.3,27.0,30.29,North,355,3.0,10.0,30,0.00,,,0.00,meteohub,2013-04-27 22:32:00,
2013-04-27 18:37:00,58.6,28.0,30.29,NW,322,4.0,8.0,31,0.00,,,0.00,meteohub,2013-04-27 22:37:00,
2013-04-27 18:42:00,58.8,28.2,30.29,NNW,329,3.0,7.0,31,0.00,,,0.00,meteohub,2013-04-27 22:42:00,
2013-04-27 18:47:00,59.0,29.1,30.29,NNW,327,4.0,5.0,32,0.00,,,0.00,meteohub,2013-04-27 22:47:00,
2013-04-27 18:52:00,58.8,28.2,30.29,NW,322,3.0,6.0,31,0.00,,,0.00,meteohub,2013-04-27 22:52:00,
2013-04-27 18:57:00,58.6,28.9,30.29,North,355,2.0,7.0,32,0.00,,,0.00,meteohub,2013-04-27 22:57:00,
2013-04-27 19:02:00,58.3,30.7,30.29,NNW,339,2.0,7.0,35,0.00,,,0.00,meteohub,2013-04-27 23:02:00,
2013-04-27 19:07:00,57.9,29.7,30.29,NW,316,1.0,7.0,34,0.00,,,0.00,meteohub,2013-04-27 23:07:00,
2013-04-27 19:12:00,57.7,30.9,30.29,North,349,1.0,7.0,36,0.00,,,0.00,meteohub,2013-04-27 23:12:00,
2013-04-27 19:17:00,57.4,29.3,30.29,NW,324,3.0,6.0,34,0.00,,,0.00,meteohub,2013-04-27 23:17:00,
2013-04-27 19:22:00,57.0,30.4,30.29,NNW,335,3.0,6.0,36,0.00,,,0.00,meteohub,2013-04-27 23:22:00,
2013-04-27 19:27:00,56.8,33.4,30.29,NNW,331,1.0,6.0,41,0.00,,,0.00,meteohub,2013-04-27 23:27:00,
2013-04-27 19:32:00,56.5,36.0,30.29,NNW,331,0.0,4.0,46,0.00,,,0.00,meteohub,2013-04-27 23:32:00,
2013-04-27 19:37:00,55.9,32.5,30.29,NNW,331,0.0,3.0,41,0.00,,,0.00,meteohub,2013-04-27 23:37:00,
2013-04-27 19:42:00,55.6,32.2,30.29,NNW,331,0.0,2.0,41,0.00,,,0.00,meteohub,2013-04-27 23:42:00,
2013-04-27 19:47:00,55.0,33.4,30.29,NNW,331,0.0,0.0,44,0.00,,,0.00,meteohub,2013-04-27 23:47:00,
2013-04-27 19:52:00,54.3,34.5,30.29,NNW,331,0.0,0.0,47,0.00,,,0.00,meteohub,2013-04-27 23:52:00,
2013-04-27 19:57:00,53.4,34.7,30.29,NNW,331,0.0,0.0,49,0.00,,,0.00,meteohub,2013-04-27 23:57:00,
2013-04-27 20:02:00,52.7,34.5,30.29,NNW,331,1.0,0.0,50,0.00,,,0.00,meteohub,2013-04-28 00:02:00,
2013-04-27 20:07:00,52.0,32.9,30.29,NNW,331,0.0,1.0,48,0.00,,,0.00,meteohub,2013-04-28 00:07:00,
2013-04-27 20:12:00,51.4,32.4,30.29,NNW,331,0.0,1.0,48,0.00,,,0.00,meteohub,2013-04-28 00:12:00,
2013-04-27 20:17:00,51.1,31.1,30.29,NNW,331,0.0,1.0,46,0.00,,,0.00,meteohub,2013-04-28 00:17:00,
2013-04-27 20:22:00,50.7,31.3,30.29,NNW,331,0.0,0.0,47,0.00,,,0.00,meteohub,2013-04-28 00:22:00,
2013-04-27 20:27:00,50.5,32.0,30.29,NNW,331,1.0,0.0,49,0.00,,,0.00,meteohub,2013-04-28 00:27:00,
2013-04-27 20:32:00,49.8,34.3,30.30,NNW,331,0.0,2.0,55,0.00,,,0.00,meteohub,2013-04-28 00:32:00,
2013-04-27 20:37:00,49.5,31.6,30.30,NNW,331,0.0,2.0,50,0.00,,,0.00,meteohub,2013-04-28 00:37:00,
2013-04-27 20:42:00,48.9,32.0,30.30,NNW,331,0.0,2.0,52,0.00,,,0.00,meteohub,2013-04-28 00:42:00,
2013-04-27 20:47:00,48.7,31.5,30.30,NNW,331,0.0,0.0,51,0.00,,,0.00,meteohub,2013-04-28 00:47:00,
2013-04-27 20:52:00,48.6,32.7,30.30,NNW,331,0.0,0.0,54,0.00,,,0.00,meteohub,2013-04-28 00:52:00,
2013-04-27 20:57:00,48.0,33.4,30.30,NNW,331,0.0,1.0,57,0.00,,,0.00,meteohub,2013-04-28 00:57:00,
2013-04-27 21:02:00,47.5,33.4,30.30,NNW,331,0.0,1.0,58,0.00,,,0.00,meteohub,2013-04-28 01:02:00,
2013-04-27 21:07:00,47.1,33.4,30.30,NNW,331,0.0,1.0,59,0.00,,,0.00,meteohub,2013-04-28 01:07:00,
2013-04-27 21:12:00,46.8,33.3,30.31,NNW,331,0.0,1.0,59,0.00,,,0.00,meteohub,2013-04-28 01:12:00,
2013-04-27 21:17:00,46.6,33.1,30.31,NNW,331,0.0,1.0,59,0.00,,,0.00,meteohub,2013-04-28 01:17:00,
2013-04-27 21:22:00,46.2,32.2,30.31,NNW,331,0.0,1.0,58,0.00,,,0.00,meteohub,2013-04-28 01:22:00,
2013-04-27 21:27:00,46.0,32.9,30.31,NNW,331,0.0,1.0,60,0.00,,,0.00,meteohub,2013-04-28 01:27:00,
2013-04-27 21:32:00,45.9,33.3,30.31,NNW,331,0.0,0.0,61,0.00,,,0.00,meteohub,2013-04-28 01:32:00,
2013-04-27 21:37:00,45.7,33.1,30.31,NNW,331,0.0,0.0,61,0.00,,,0.00,meteohub,2013-04-28 01:37:00,
2013-04-27 21:42:00,45.3,33.8,30.31,NNW,331,0.0,0.0,64,0.00,,,0.00,meteohub,2013-04-28 01:42:00,
2013-04-27 21:47:00,45.0,33.1,30.31,NNW,331,0.0,1.0,63,0.00,,,0.00,meteohub,2013-04-28 01:47:00,
2013-04-27 21:52:00,44.8,32.2,30.31,NNW,331,0.0,1.0,61,0.00,,,0.00,meteohub,2013-04-28 01:52:00,
2013-04-27 21:57:00,44.4,33.1,30.31,NNW,331,1.0,1.0,64,0.00,,,0.00,meteohub,2013-04-28 01:57:00,
2013-04-27 22:02:00,44.2,33.6,30.31,NNW,331,0.0,2.0,66,0.00,,,0.00,meteohub,2013-04-28 02:02:00,
2013-04-27 22:07:00,44.1,33.1,30.32,NNW,331,0.0,2.0,65,0.00,,,0.00,meteohub,2013-04-28 02:07:00,
2013-04-27 22:12:00,43.9,32.9,30.31,NNW,331,0.0,2.0,65,0.00,,,0.00,meteohub,2013-04-28 02:12:00,
2013-04-27 22:17:00,43.7,33.4,30.31,NNW,331,1.0,1.0,67,0.00,,,0.00,meteohub,2013-04-28 02:17:00,
2013-04-27 22:22:00,43.3,34.2,30.32,NNW,331,0.0,2.0,70,0.00,,,0.00,meteohub,2013-04-28 02:22:00,
2013-04-27 22:27:00,43.2,34.0,30.32,NNW,331,0.0,2.0,70,0.00,,,0.00,meteohub,2013-04-28 02:27:00,
2013-04-27 22:32:00,43.0,33.8,30.32,NNW,331,0.0,2.0,70,0.00,,,0.00,meteohub,2013-04-28 02:32:00,
2013-04-27 22:37:00,42.8,34.0,30.32,NNW,331,0.0,2.0,71,0.00,,,0.00,meteohub,2013-04-28 02:37:00,
2013-04-27 22:42:00,42.6,33.8,30.32,NNW,331,0.0,1.0,71,0.00,,,0.00,meteohub,2013-04-28 02:42:00,
2013-04-27 22:47:00,42.4,33.6,30.32,NNW,331,0.0,1.0,71,0.00,,,0.00,meteohub,2013-04-28 02:47:00,
2013-04-27 22:52:00,42.1,33.4,30.32,NNW,331,1.0,1.0,71,0.00,,,0.00,meteohub,2013-04-28 02:52:00,
2013-04-27 22:57:00,42.1,32.7,30.32,NNW,331,0.0,1.0,69,0.00,,,0.00,meteohub,2013-04-28 02:57:00,
2013-04-27 23:02:00,41.7,32.4,30.32,NNW,331,0.0,1.0,69,0.00,,,0.00,meteohub,2013-04-28 03:02:00,
2013-04-27 23:07:00,41.7,33.1,30.32,NNW,331,1.0,1.0,71,0.00,,,0.00,meteohub,2013-04-28 03:07:00,
2013-04-27 23:12:00,41.5,33.3,30.32,NNW,331,0.0,1.0,72,0.00,,,0.00,meteohub,2013-04-28 03:12:00,
2013-04-27 23:17:00,41.2,32.9,30.31,NNW,331,1.0,2.0,72,0.00,,,0.00,meteohub,2013-04-28 03:17:00,
2013-04-27 23:23:00,41.0,33.1,30.31,NNW,331,0.0,2.0,73,0.00,,,0.00,meteohub,2013-04-28 03:23:00,
2013-04-27 23:28:00,40.8,32.5,30.32,NNW,331,0.0,2.0,72,0.00,,,0.00,meteohub,2013-04-28 03:28:00,
2013-04-27 23:33:00,40.6,32.7,30.32,NNW,331,1.0,1.0,73,0.00,,,0.00,meteohub,2013-04-28 03:33:00,
2013-04-27 23:38:00,40.6,33.1,30.32,NNW,331,0.0,0.0,74,0.00,,,0.00,meteohub,2013-04-28 03:38:00,
2013-04-27 23:43:00,40.5,32.5,30.32,NNW,331,0.0,2.0,73,0.00,,,0.00,meteohub,2013-04-28 03:43:00,
2013-04-27 23:48:00,40.5,32.5,30.32,NNW,331,0.0,2.0,73,0.00,,,0.00,meteohub,2013-04-28 03:48:00,
2013-04-27 23:53:00,40.3,32.7,30.32,NNW,331,0.0,1.0,74,0.00,,,0.00,meteohub,2013-04-28 03:53:00,
2013-04-27 23:58:00,40.1,32.9,30.32,NNW,331,0.0,0.0,75,0.00,,,0.00,meteohub,2013-04-28 03:58:00,